Voltar ao catálogo

HJS-9B

AtivoCiênciaVLEO
NORAD 68832·PAYLOAD·🇨🇳 China

Lançado Apr 24, 2026 de Xichang Satellite Launch Center

Loading…

Próximas Passagens (próximas 24 horas)

TLE

AtualizadoSource: Space-Track

Época: Sep 14, 2026, 14:45 UTC

1 68832U 26091B   26257.61512767  .00011119  00000-0  53956-3 0  9996
2 68832  55.0046 350.9675 0006774 260.7730  99.2523 15.18981229 21798

Acompanhe HJS-9B em tempo real com AllMySat

Download on the App Store